Time,TemperatureF,DewpointF,PressureIn,WindDirection,WindDirectionDegrees,WindSpeedMPH,WindSpeedGustMPH,Humidity,HourlyPrecipIn,Conditions,Clouds,dailyrainin,SoftwareType,DateUTC
2013-01-27 00:01:00,26.0,23.0,29.83,WSW,241,0.0,-999.0,90,-99.99,,,-99.99,,2013-01-27 07:01:00,
2013-01-27 00:13:00,26.0,23.0,29.83,WSW,241,0.0,-999.0,90,-99.99,,,-99.99,,2013-01-27 07:13:00,
2013-01-27 00:21:00,26.0,23.0,29.84,WSW,241,0.0,-999.0,90,-99.99,,,-99.99,,2013-01-27 07:21:00,
2013-01-27 00:31:00,25.0,22.0,29.83,WSW,241,0.0,-999.0,90,-99.99,,,-99.99,,2013-01-27 07:31:00,
2013-01-27 00:41:00,25.0,22.0,29.83,WSW,241,0.0,-999.0,90,-99.99,,,-99.99,,2013-01-27 07:41:00,
2013-01-27 00:52:00,25.0,22.0,29.83,WSW,241,0.0,-999.0,90,-99.99,,,-99.99,,2013-01-27 07:52:00,
2013-01-27 01:01:00,25.0,22.0,29.82,WSW,241,0.0,-999.0,90,-99.99,,,-99.99,,2013-01-27 08:01:00,
2013-01-27 01:11:00,25.0,22.0,29.82,WSW,241,0.0,-999.0,90,-99.99,,,-99.99,,2013-01-27 08:11:00,
2013-01-27 01:22:00,25.0,22.0,29.82,WSW,241,0.0,-999.0,90,-99.99,,,-99.99,,2013-01-27 08:22:00,
2013-01-27 01:31:00,25.0,22.0,29.82,WSW,241,0.0,-999.0,90,-99.99,,,-99.99,,2013-01-27 08:31:00,
2013-01-27 01:42:00,25.0,22.0,29.82,WSW,241,0.0,-999.0,90,-99.99,,,-99.99,,2013-01-27 08:42:00,
2013-01-27 01:52:00,26.0,23.0,29.82,WSW,241,0.0,-999.0,90,-99.99,,,-99.99,,2013-01-27 08:52:00,
2013-01-27 02:02:00,26.0,23.0,29.82,WSW,241,0.0,-999.0,90,-99.99,,,-99.99,,2013-01-27 09:02:00,
2013-01-27 02:11:00,26.0,23.0,29.82,WSW,241,0.0,-999.0,90,-99.99,,,-99.99,,2013-01-27 09:11:00,
2013-01-27 02:21:00,26.0,23.0,29.81,WSW,241,0.0,-999.0,90,-99.99,,,-99.99,,2013-01-27 09:21:00,
2013-01-27 02:32:00,26.0,23.0,29.81,WSW,241,0.0,-999.0,89,-99.99,,,-99.99,,2013-01-27 09:32:00,
2013-01-27 02:41:00,26.0,23.0,29.81,WSW,241,0.0,-999.0,89,-99.99,,,-99.99,,2013-01-27 09:41:00,
2013-01-27 02:52:00,26.0,23.0,29.81,WSW,241,0.0,-999.0,89,-99.99,,,-99.99,,2013-01-27 09:52:00,
2013-01-27 03:01:00,27.0,24.0,29.82,WSW,244,0.0,-999.0,88,-99.99,,,-99.99,,2013-01-27 10:01:00,
2013-01-27 03:11:00,27.0,23.0,29.81,WSW,244,0.0,-999.0,86,-99.99,,,-99.99,,2013-01-27 10:11:00,
2013-01-27 03:21:00,27.0,23.0,29.81,WSW,244,0.0,-999.0,86,-99.99,,,-99.99,,2013-01-27 10:21:00,
2013-01-27 03:31:00,27.0,23.0,29.81,WSW,244,0.0,-999.0,85,-99.99,,,-99.99,,2013-01-27 10:31:00,
2013-01-27 03:42:00,27.0,23.0,29.81,WSW,244,0.0,-999.0,85,-99.99,,,-99.99,,2013-01-27 10:42:00,
2013-01-27 03:52:00,27.0,23.0,29.80,WSW,244,0.0,-999.0,85,-99.99,,,-99.99,,2013-01-27 10:52:00,
2013-01-27 04:01:00,27.0,22.0,29.80,NE,54,1.0,-999.0,80,-99.99,,,-99.99,,2013-01-27 11:01:00,
2013-01-27 04:11:00,28.0,21.0,29.80,ESE,117,0.0,-999.0,76,-99.99,,,-99.99,,2013-01-27 11:11:00,
2013-01-27 04:21:00,28.0,21.0,29.80,ESE,117,0.0,-999.0,76,-99.99,,,-99.99,,2013-01-27 11:21:00,
2013-01-27 04:32:00,28.0,22.0,29.80,SW,223,0.0,-999.0,78,-99.99,,,-99.99,,2013-01-27 11:32:00,
2013-01-27 04:42:00,28.0,22.0,29.80,SW,223,0.0,-999.0,78,-99.99,,,-99.99,,2013-01-27 11:42:00,
2013-01-27 04:52:00,28.0,22.0,29.80,South,185,0.0,-999.0,79,-99.99,,,-99.99,,2013-01-27 11:52:00,
2013-01-27 05:02:00,27.0,22.0,29.80,South,185,0.0,-999.0,81,-99.99,,,-99.99,,2013-01-27 12:02:00,
2013-01-27 05:11:00,27.0,22.0,29.80,South,185,0.0,-999.0,81,-99.99,,,-99.99,,2013-01-27 12:11:00,
2013-01-27 05:21:00,26.0,20.0,29.80,NW,319,0.0,-999.0,79,-99.99,,,-99.99,,2013-01-27 12:21:00,
2013-01-27 05:32:00,25.0,20.0,29.80,NW,319,0.0,-999.0,81,-99.99,,,-99.99,,2013-01-27 12:32:00,
2013-01-27 05:42:00,25.0,20.0,29.80,NW,319,0.0,-999.0,81,-99.99,,,-99.99,,2013-01-27 12:42:00,
2013-01-27 05:52:00,25.0,20.0,29.79,NW,315,0.0,-999.0,81,-99.99,,,-99.99,,2013-01-27 12:52:00,
2013-01-27 06:02:00,24.0,19.0,29.80,NW,315,0.0,-999.0,82,-99.99,,,-99.99,,2013-01-27 13:02:00,
2013-01-27 06:11:00,24.0,19.0,29.80,NW,315,0.0,-999.0,82,-99.99,,,-99.99,,2013-01-27 13:11:00,
2013-01-27 06:22:00,24.0,19.0,29.81,NW,315,0.0,-999.0,82,-99.99,,,-99.99,,2013-01-27 13:22:00,
2013-01-27 06:32:00,23.0,18.0,29.83,NW,315,0.0,-999.0,81,-99.99,,,-99.99,,2013-01-27 13:32:00,
2013-01-27 06:42:00,23.0,18.0,29.83,NW,315,0.0,-999.0,81,-99.99,,,-99.99,,2013-01-27 13:42:00,
2013-01-27 06:52:00,22.0,17.0,29.84,NW,315,0.0,-999.0,82,-99.99,,,-99.99,,2013-01-27 13:52:00,
2013-01-27 07:02:00,21.0,17.0,29.85,NW,315,0.0,-999.0,84,-99.99,,,-99.99,,2013-01-27 14:02:00,
2013-01-27 07:11:00,21.0,17.0,29.85,NW,315,0.0,-999.0,84,-99.99,,,-99.99,,2013-01-27 14:11:00,
2013-01-27 07:22:00,21.0,17.0,29.85,NW,315,0.0,-999.0,84,-99.99,,,-99.99,,2013-01-27 14:22:00,
2013-01-27 07:32:00,21.0,17.0,29.86,NW,315,0.0,-999.0,85,-99.99,,,-99.99,,2013-01-27 14:32:00,
2013-01-27 07:42:00,21.0,17.0,29.86,NW,315,0.0,-999.0,85,-99.99,,,-99.99,,2013-01-27 14:42:00,
2013-01-27 07:53:00,20.0,16.0,29.85,NW,315,0.0,-999.0,85,-99.99,,,-99.99,,2013-01-27 14:53:00,
2013-01-27 08:02:00,20.0,16.0,29.85,NW,315,0.0,-999.0,86,-99.99,,,-99.99,,2013-01-27 15:02:00,
2013-01-27 08:11:00,20.0,16.0,29.85,NW,315,0.0,-999.0,86,-99.99,,,-99.99,,2013-01-27 15:11:00,
2013-01-27 08:22:00,21.0,18.0,29.86,NW,315,0.0,-999.0,87,-99.99,,,-99.99,,2013-01-27 15:22:00,
2013-01-27 08:32:00,24.0,20.0,29.85,SSE,166,1.0,-999.0,83,-99.99,,,-99.99,,2013-01-27 15:32:00,
2013-01-27 08:42:00,24.0,20.0,29.85,SSE,166,1.0,-999.0,83,-99.99,,,-99.99,,2013-01-27 15:42:00,
2013-01-27 08:53:00,26.0,20.0,29.85,SSE,150,1.0,-999.0,78,-99.99,,,-99.99,,2013-01-27 15:53:00,
2013-01-27 09:02:00,27.0,20.0,29.85,SW,221,1.0,-999.0,75,-99.99,,,-99.99,,2013-01-27 16:02:00,
2013-01-27 09:12:00,27.0,20.0,29.85,SW,221,1.0,-999.0,75,-99.99,,,-99.99,,2013-01-27 16:12:00,
2013-01-27 09:21:00,28.0,21.0,29.85,SSW,194,2.0,-999.0,74,-99.99,,,-99.99,,2013-01-27 16:21:00,
2013-01-27 09:32:00,29.0,21.0,29.85,SE,128,3.0,-999.0,72,-99.99,,,-99.99,,2013-01-27 16:32:00,
2013-01-27 09:42:00,29.0,21.0,29.85,SE,128,3.0,-999.0,72,-99.99,,,-99.99,,2013-01-27 16:42:00,
2013-01-27 09:53:00,29.0,20.0,29.86,ESE,111,3.0,-999.0,70,-99.99,,,-99.99,,2013-01-27 16:53:00,
2013-01-27 10:01:00,30.0,21.0,29.86,SE,129,2.0,-999.0,69,-99.99,,,-99.99,,2013-01-27 17:01:00,
2013-01-27 10:12:00,30.0,21.0,29.86,SE,129,2.0,-999.0,69,-99.99,,,-99.99,,2013-01-27 17:12:00,
2013-01-27 10:22:00,30.0,20.0,29.88,East,96,2.0,-999.0,67,-99.99,,,-99.99,,2013-01-27 17:22:00,
2013-01-27 10:32:00,31.0,21.0,29.88,ESE,109,3.0,-999.0,65,-99.99,,,-99.99,,2013-01-27 17:32:00,
2013-01-27 10:42:00,31.0,21.0,29.88,ESE,109,3.0,-999.0,65,-99.99,,,-99.99,,2013-01-27 17:42:00,
2013-01-27 10:52:00,32.0,20.0,29.89,ESE,110,2.0,-999.0,62,-99.99,,,-99.99,,2013-01-27 17:52:00,
2013-01-27 11:02:00,32.0,20.0,29.89,SW,234,2.0,-999.0,60,-99.99,,,-99.99,,2013-01-27 18:02:00,
2013-01-27 11:11:00,32.0,20.0,29.89,SW,234,2.0,-999.0,60,-99.99,,,-99.99,,2013-01-27 18:11:00,
2013-01-27 11:22:00,33.0,20.0,29.89,East,88,3.0,-999.0,59,-99.99,,,-99.99,,2013-01-27 18:22:00,
2013-01-27 11:32:00,34.0,20.0,29.88,ESE,107,2.0,-999.0,57,-99.99,,,-99.99,,2013-01-27 18:32:00,
2013-01-27 11:42:00,34.0,20.0,29.88,ESE,107,2.0,-999.0,57,-99.99,,,-99.99,,2013-01-27 18:42:00,
2013-01-27 11:52:00,34.0,21.0,29.87,NE,47,2.0,-999.0,58,-99.99,,,-99.99,,2013-01-27 18:52:00,
2013-01-27 12:02:00,35.0,20.0,29.87,East,98,2.0,-999.0,54,-99.99,,,-99.99,,2013-01-27 19:02:00,
2013-01-27 12:11:00,35.0,20.0,29.87,East,98,2.0,-999.0,54,-99.99,,,-99.99,,2013-01-27 19:11:00,
2013-01-27 12:22:00,36.0,19.0,29.86,East,95,3.0,-999.0,49,-99.99,,,-99.99,,2013-01-27 19:22:00,
2013-01-27 12:32:00,36.0,17.0,29.86,South,171,3.0,-999.0,46,-99.99,,,-99.99,,2013-01-27 19:32:00,
2013-01-27 12:42:00,36.0,17.0,29.86,South,171,3.0,-999.0,46,-99.99,,,-99.99,,2013-01-27 19:42:00,
2013-01-27 12:52:00,36.0,17.0,29.86,ENE,67,4.0,-999.0,45,-99.99,,,-99.99,,2013-01-27 19:52:00,
2013-01-27 13:02:00,36.0,17.0,29.85,ENE,75,3.0,-999.0,45,-99.99,,,-99.99,,2013-01-27 20:02:00,
2013-01-27 13:11:00,36.0,17.0,29.85,ENE,75,3.0,-999.0,45,-99.99,,,-99.99,,2013-01-27 20:11:00,
2013-01-27 13:22:00,36.0,16.0,29.85,East,90,3.0,-999.0,44,-99.99,,,-99.99,,2013-01-27 20:22:00,
2013-01-27 13:32:00,36.0,16.0,29.85,ESE,122,4.0,-999.0,43,-99.99,,,-99.99,,2013-01-27 20:32:00,
2013-01-27 13:42:00,36.0,16.0,29.85,ESE,122,4.0,-999.0,43,-99.99,,,-99.99,,2013-01-27 20:42:00,
2013-01-27 13:52:00,35.0,15.0,29.85,NE,46,4.0,-999.0,43,-99.99,,,-99.99,,2013-01-27 20:52:00,
2013-01-27 14:02:00,35.0,15.0,29.85,East,98,3.0,-999.0,44,-99.99,,,-99.99,,2013-01-27 21:02:00,
2013-01-27 14:12:00,35.0,15.0,29.85,East,98,3.0,-999.0,44,-99.99,,,-99.99,,2013-01-27 21:12:00,
2013-01-27 14:22:00,35.0,15.0,29.86,ENE,65,3.0,-999.0,43,-99.99,,,-99.99,,2013-01-27 21:22:00,
2013-01-27 14:32:00,33.0,15.0,29.87,ENE,62,1.0,-999.0,46,-99.99,,,-99.99,,2013-01-27 21:32:00,
2013-01-27 14:42:00,33.0,15.0,29.87,ENE,62,1.0,-999.0,46,-99.99,,,-99.99,,2013-01-27 21:42:00,
2013-01-27 14:52:00,33.0,15.0,29.88,NE,38,1.0,-999.0,48,-99.99,,,-99.99,,2013-01-27 21:52:00,
2013-01-27 15:02:00,35.0,14.0,29.88,East,79,2.0,-999.0,42,-99.99,,,-99.99,,2013-01-27 22:02:00,
2013-01-27 15:11:00,35.0,14.0,29.88,East,79,2.0,-999.0,42,-99.99,,,-99.99,,2013-01-27 22:11:00,
2013-01-27 15:22:00,34.0,13.0,29.88,ESE,107,3.0,-999.0,42,-99.99,,,-99.99,,2013-01-27 22:22:00,
2013-01-27 15:32:00,34.0,13.0,29.88,ENE,66,2.0,-999.0,42,-99.99,,,-99.99,,2013-01-27 22:32:00,
2013-01-27 15:42:00,34.0,13.0,29.88,ENE,66,2.0,-999.0,42,-99.99,,,-99.99,,2013-01-27 22:42:00,
2013-01-27 15:52:00,33.0,14.0,29.88,ENE,59,2.0,-999.0,45,-99.99,,,-99.99,,2013-01-27 22:52:00,
2013-01-27 16:02:00,33.0,14.0,29.88,North,355,1.0,-999.0,45,-99.99,,,-99.99,,2013-01-27 23:02:00,
2013-01-27 16:12:00,33.0,14.0,29.88,North,355,1.0,-999.0,45,-99.99,,,-99.99,,2013-01-27 23:12:00,
2013-01-27 16:21:00,32.0,13.0,29.89,East,80,1.0,-999.0,44,-99.99,,,-99.99,,2013-01-27 23:21:00,
2013-01-27 16:32:00,31.0,11.0,29.88,NE,42,2.0,-999.0,43,-99.99,,,-99.99,,2013-01-27 23:32:00,
2013-01-27 16:41:00,31.0,11.0,29.88,NE,42,2.0,-999.0,43,-99.99,,,-99.99,,2013-01-27 23:41:00,
2013-01-27 16:53:00,30.0,12.0,29.88,ENE,78,0.0,-999.0,46,-99.99,,,-99.99,,2013-01-27 23:53:00,
2013-01-27 17:01:00,29.0,12.0,29.88,NE,48,0.0,-999.0,48,-99.99,,,-99.99,,2013-01-28 00:01:00,
2013-01-27 17:11:00,29.0,12.0,29.88,NE,48,0.0,-999.0,48,-99.99,,,-99.99,,2013-01-28 00:11:00,
2013-01-27 17:21:00,28.0,10.0,29.88,NE,49,0.0,-999.0,47,-99.99,,,-99.99,,2013-01-28 00:21:00,
2013-01-27 17:32:00,27.0,10.0,29.89,NE,49,0.0,-999.0,48,-99.99,,,-99.99,,2013-01-28 00:32:00,
2013-01-27 17:42:00,27.0,10.0,29.89,NE,49,0.0,-999.0,48,-99.99,,,-99.99,,2013-01-28 00:42:00,
2013-01-27 17:52:00,27.0,9.0,29.89,NE,49,0.0,-999.0,47,-99.99,,,-99.99,,2013-01-28 00:52:00,
2013-01-27 18:01:00,26.0,9.0,29.90,NE,49,0.0,-999.0,48,-99.99,,,-99.99,,2013-01-28 01:01:00,
2013-01-27 18:11:00,26.0,9.0,29.90,NE,49,0.0,-999.0,48,-99.99,,,-99.99,,2013-01-28 01:11:00,
2013-01-27 18:22:00,25.0,9.0,29.90,NE,49,0.0,-999.0,50,-99.99,,,-99.99,,2013-01-28 01:22:00,
2013-01-27 18:32:00,25.0,10.0,29.91,NE,49,0.0,-999.0,52,-99.99,,,-99.99,,2013-01-28 01:32:00,
2013-01-27 18:42:00,25.0,10.0,29.91,NE,49,0.0,-999.0,52,-99.99,,,-99.99,,2013-01-28 01:42:00,
2013-01-27 18:52:00,24.0,9.0,29.91,NE,49,0.0,-999.0,52,-99.99,,,-99.99,,2013-01-28 01:52:00,
2013-01-27 19:02:00,24.0,9.0,29.92,NE,49,0.0,-999.0,52,-99.99,,,-99.99,,2013-01-28 02:02:00,
2013-01-27 19:11:00,24.0,9.0,29.92,NE,49,0.0,-999.0,52,-99.99,,,-99.99,,2013-01-28 02:11:00,
2013-01-27 19:22:00,24.0,9.0,29.92,NE,49,0.0,-999.0,52,-99.99,,,-99.99,,2013-01-28 02:22:00,
2013-01-27 19:32:00,24.0,9.0,29.92,NE,49,0.0,-999.0,53,-99.99,,,-99.99,,2013-01-28 02:32:00,
2013-01-27 19:42:00,24.0,9.0,29.92,NE,49,0.0,-999.0,53,-99.99,,,-99.99,,2013-01-28 02:42:00,
2013-01-27 19:52:00,23.0,8.0,29.93,NE,49,0.0,-999.0,53,-99.99,,,-99.99,,2013-01-28 02:52:00,
2013-01-27 20:02:00,23.0,9.0,29.92,NE,49,0.0,-999.0,54,-99.99,,,-99.99,,2013-01-28 03:02:00,
2013-01-27 20:11:00,23.0,9.0,29.92,NE,49,0.0,-999.0,54,-99.99,,,-99.99,,2013-01-28 03:11:00,
2013-01-27 20:21:00,22.0,8.0,29.92,SE,138,0.0,-999.0,55,-99.99,,,-99.99,,2013-01-28 03:21:00,
2013-01-27 20:32:00,21.0,8.0,29.91,SE,138,0.0,-999.0,56,-99.99,,,-99.99,,2013-01-28 03:32:00,
2013-01-27 20:42:00,21.0,8.0,29.91,SE,138,0.0,-999.0,56,-99.99,,,-99.99,,2013-01-28 03:42:00,
2013-01-27 20:53:00,21.0,9.0,29.91,SE,138,0.0,-999.0,60,-99.99,,,-99.99,,2013-01-28 03:53:00,
2013-01-27 21:02:00,20.0,9.0,29.91,SE,138,0.0,-999.0,61,-99.99,,,-99.99,,2013-01-28 04:02:00,
2013-01-27 21:11:00,20.0,9.0,29.91,SE,138,0.0,-999.0,61,-99.99,,,-99.99,,2013-01-28 04:11:00,
2013-01-27 21:22:00,21.0,10.0,29.90,SE,130,0.0,-999.0,63,-99.99,,,-99.99,,2013-01-28 04:22:00,
2013-01-27 21:32:00,21.0,10.0,29.90,SE,129,0.0,-999.0,63,-99.99,,,-99.99,,2013-01-28 04:32:00,
2013-01-27 21:42:00,21.0,10.0,29.90,SE,129,0.0,-999.0,63,-99.99,,,-99.99,,2013-01-28 04:42:00,
2013-01-27 21:52:00,21.0,10.0,29.90,SE,129,0.0,-999.0,63,-99.99,,,-99.99,,2013-01-28 04:52:00,
2013-01-27 22:03:00,21.0,11.0,29.89,SE,129,0.0,-999.0,65,-99.99,,,-99.99,,2013-01-28 05:03:00,
2013-01-27 22:11:00,21.0,11.0,29.89,SE,129,0.0,-999.0,65,-99.99,,,-99.99,,2013-01-28 05:11:00,
2013-01-27 22:21:00,21.0,11.0,29.88,SE,129,0.0,-999.0,66,-99.99,,,-99.99,,2013-01-28 05:21:00,
2013-01-27 22:31:00,21.0,12.0,29.88,SE,129,0.0,-999.0,67,-99.99,,,-99.99,,2013-01-28 05:31:00,
2013-01-27 22:41:00,21.0,12.0,29.88,SE,129,0.0,-999.0,67,-99.99,,,-99.99,,2013-01-28 05:41:00,
2013-01-27 22:52:00,20.0,11.0,29.88,SE,129,0.0,-999.0,67,-99.99,,,-99.99,,2013-01-28 05:52:00,
2013-01-27 23:02:00,20.0,11.0,29.89,SE,129,0.0,-999.0,68,-99.99,,,-99.99,,2013-01-28 06:02:00,
2013-01-27 23:11:00,20.0,11.0,29.89,SE,129,0.0,-999.0,68,-99.99,,,-99.99,,2013-01-28 06:11:00,
2013-01-27 23:21:00,19.0,10.0,29.89,SE,129,0.0,-999.0,68,-99.99,,,-99.99,,2013-01-28 06:21:00,
2013-01-27 23:32:00,19.0,11.0,29.88,SE,129,0.0,-999.0,69,-99.99,,,-99.99,,2013-01-28 06:32:00,
2013-01-27 23:42:00,19.0,11.0,29.88,SE,129,0.0,-999.0,69,-99.99,,,-99.99,,2013-01-28 06:42:00,
2013-01-27 23:52:00,18.0,10.0,29.89,SE,129,0.0,-999.0,69,-99.99,,,-99.99,,2013-01-28 06:52:00,